Theta_e
310 310 309 308 307 306 306 307 307 307 308 309 310 311 314 317 320 321 323 324 326 327 327 327 326 327 327 327 327 327 327 326 327 327 327 328 328 327 327 327 326 325 325 324 325 325 324 325 325 324 323 322 321 321 320 321 321 320 319 319 319 319
308 308 307 306 305 305 306 305 305 305 306 307 308 310 313 316 319 321 321 323 324 326 327 327 327 327 327 327 326 326 326 326 327 327 327 327 327 327 327 326 325 325 324 324 324 324 324 324 324 324 323 322 321 320 320 320 320 319 318 318 319 319
308 308 306 305 304 303 302 303 303 304 305 306 308 309 310 313 316 318 320 322 323 324 325 326 327 327 327 327 326 325 326 326 326 327 327 327 327 327 326 325 325 325 324 324 323 324 323 323 323 322 321 321 320 320 320 319 319 318 317 317 317 318
306 306 306 305 303 302 302 303 302 302 303 305 306 309 311 312 315 317 319 321 323 323 324 325 326 327 326 325 326 325 325 326 326 326 326 326 326 327 326 325 325 324 324 324 324 324 324 323 323 322 321 320 320 319 320 319 318 317 317 317 316 317
304 303 302 302 302 303 303 303 303 303 303 303 305 307 310 313 315 317 319 320 321 322 323 324 325 326 326 325 325 325 325 325 326 326 326 325 326 326 326 325 325 325 324 324 324 324 323 323 322 322 321 320 319 318 318 319 318 317 316 316 317 317
303 302 303 306 308 307 307 305 303 302 302 303 304 305 308 312 315 316 317 319 320 321 322 323 324 325 324 324 324 324 325 325 325 325 325 325 325 325 325 325 325 325 324 323 323 323 322 322 322 321 321 321 319 319 318 317 318 318 318 317 317 317
305 305 305 306 307 306 305 303 302 302 303 303 302 303 306 309 312 314 316 317 318 319 320 321 322 323 323 323 323 323 324 324 325 325 324 325 324 324 324 323 324 324 323 322 322 322 321 321 322 321 320 320 320 319 319 318 318 318 318 318 318 311
305 304 304 306 307 306 304 304 303 303 303 303 302 302 303 305 309 312 314 315 316 317 318 319 320 321 322 322 322 322 324 324 324 324 323 323 323 323 323 322 322 322 322 322 322 322 322 322 321 320 319 319 319 319 319 318 318 318 318 318 318 318
305 306 305 306 306 305 304 303 303 304 303 302 302 301 301 303 304 306 309 313 314 315 316 317 318 319 320 321 321 322 322 323 323 323 322 322 322 322 321 321 321 320 321 321 321 322 322 321 319 319 319 320 319 318 317 317 318 318 317 317 316 316
307 307 307 307 307 307 304 303 302 302 303 304 304 302 300 301 301 302 305 308 309 311 313 316 317 317 318 319 320 320 320 321 321 321 321 320 319 320 321 320 320 320 319 320 320 321 321 320 319 319 319 319 319 318 318 317 316 316 315 314 315 315
310 309 308 308 307 305 304 304 303 302 300 300 301 302 301 301 300 300 301 303 305 307 310 312 313 314 314 313 314 315 315 316 317 317 317 317 317 317 319 320 319 318 317 317 318 318 318 318 318 318 318 318 318 319 317 317 315 314 313 312 311 310
310 309 308 307 305 305 305 306 306 305 304 303 302 301 301 300 299 299 300 301 302 305 307 308 308 308 308 308 308 309 310 310 310 310 311 312 313 314 313 315 315 315 315 315 315 316 316 316 318 308 305 306 316 316 316 315 314 312 312 310 306 304
310 308 307 306 306 306 306 307 306 306 304 303 302 302 302 300 299 299 300 301 302 303 304 304 304 304 305 306 306 307 305 306 304 304 304 305 305 306 306 308 311 311 313 314 313 313 314 315 314 303 304 304 304 313 314 313 312 311 309 307 304 302
309 309 309 310 311 309 308 307 307 306 304 304 303 302 301 299 299 299 300 301 302 301 301 301 301 301 301 302 303 303 301 301 300 300 301 301 301 301 300 302 305 307 308 309 310 311 312 313 303 302 302 302 302 302 311 312 311 308 308 304 303 302
309 310 310 309 309 310 309 308 306 305 306 305 305 302 299 298 298 298 299 300 301 301 301 300 299 299 298 298 299 299 299 299 298 298 299 299 299 298 299 301 301 301 301 304 305 305 305 305 301 301 301 301 301 301 304 310 309 307 304 302 301 300
308 309 310 310 309 308 307 306 305 305 304 302 301 300 300 299 298 298 298 299 300 300 300 299 298 297 297 296 296 297 297 297 298 298 298 297 296 297 298 298 298 298 299 300 301 301 301 301 298 299 299 299 299 299 301 308 307 304 301 299 299 299
307 308 309 309 308 308 307 305 303 302 301 301 301 301 300 300 299 298 298 298 300 300 299 298 297 296 296 295 295 295 295 296 296 296 297 297 296 297 297 298 297 297 297 297 298 299 300 301 297 297 298 298 298 299 299 305 302 299 298 297 296 297
307 307 306 306 305 306 306 304 303 302 302 302 300 301 300 300 299 299 299 298 299 299 299 298 297 295 295 295 294 294 294 294 295 295 295 295 296 296 296 296 297 297 296 296 297 298 299 299 296 296 296 297 298 298 300 300 297 296 295 294 295 295
307 307 305 304 304 304 303 303 302 301 300 300 301 300 299 298 298 299 299 298 299 299 299 298 297 295 294 294 293 293 294 294 294 295 296 295 295 295 295 296 295 296 297 295 296 297 298 299 295 294 295 296 297 297 297 295 295 294 294 294 293 294
306 306 305 303 302 302 302 301 301 299 298 298 298 298 298 297 298 299 300 300 300 299 299 298 297 295 294 294 293 293 294 295 296 296 293 296 295 295 296 295 295 293 294 294 294 295 297 296 293 292 294 295 296 296 296 295 293 292 293 292 292 293
303 301 300 301 301 303 302 300 299 298 298 299 299 298 298 298 298 298 298 300 301 300 300 299 297 295 294 293 293 294 293 293 294 294 292 294 297 296 295 292 294 293 292 292 293 289 295 296 292 291 293 294 295 294 295 293 293 292 291 290 290 291
300 300 301 300 301 302 301 300 300 297 297 298 299 298 298 298 299 299 300 300 301 300 299 299 296 294 293 292 292 294 294 293 293 293 293 292 294 293 294 294 293 292 292 290 291 290 292 294 292 291 293 293 294 294 294 294 294 293 291 291 291 289
299 299 299 300 300 300 300 299 298 297 298 298 298 297 299 300 300 299 299 300 300 299 298 297 296 293 292 293 293 293 292 293 293 293 292 292 292 292 292 291 291 291 291 291 290 290 290 291 292 289 291 293 294 294 293 293 293 293 292 291 290 291
297 297 298 298 299 298 298 297 296 296 297 297 297 298 300 300 300 299 299 299 299 298 297 293 293 292 292 291 292 291 291 291 291 291 291 294 293 290 290 290 290 292 292 291 290 289 290 289 289 292 290 292 293 293 293 293 293 293 292 291 291 291
296 296 296 297 297 297 296 293 291 293 294 295 296 298 298 298 298 298 298 298 297 293 292 292 291 291 292 291 291 291 291 291 290 290 290 291 290 289 289 289 290 290 291 291 291 290 289 289 289 288 290 290 292 292 292 293 292 292 291 292 291 290
295 295 295 296 295 296 294 294 291 291 291 293 296 296 296 296 296 296 295 292 293 292 291 290 290 290 291 291 291 290 290 290 290 290 291 291 291 291 289 290 289 290 290 289 290 289 289 288 289 288 288 289 290 292 292 292 292 291 290 291 292 291
293 293 293 294 294 294 292 291 291 289 289 293 295 294 294 293 292 290 290 290 290 290 290 290 290 290 290 290 290 290 290 289 289 289 290 290 291 291 290 290 290 290 290 289 290 290 289 289 289 290 288 288 289 291 292 292 291 291 291 290 290 292
291 291 291 293 293 293 292 291 290 289 291 293 292 292 291 289 288 288 289 289 289 289 289 289 289 289 289 289 290 290 292 291 290 290 290 290 290 291 290 290 290 290 290 290 291 290 289 289 289 289 289 287 287 289 290 290 289 288 288 288 288 287
290 290 289 289 292 292 291 290 290 290 291 289 290 289 288 287 287 287 288 288 289 289 289 288 290 291 290 289 290 291 291 292 291 290 290 290 290 290 290 290 290 290 290 290 290 290 290 288 288 288 288 288 288 289 288 288 288 286 286 286 286 285
289 289 289 290 291 291 290 289 288 288 288 288 287 287 286 286 287 287 288 288 289 290 290 290 288 289 290 290 289 290 290 291 291 290 290 289 290 290 290 290 290 289 290 290 290 290 289 288 288 288 288 287 288 289 289 289 288 287 288 286 285 285
288 288 288 289 290 289 288 287 287 287 287 286 286 285 285 286 286 287 287 288 289 289 290 290 289 290 290 290 289 290 291 291 290 290 291 291 291 292 291 291 290 291 291 291 291 290 288 288 288 289 289 289 289 289 289 288 288 288 287 286 286 283
287 287 287 288 289 288 287 286 286 286 286 286 285 285 284 285 286 287 287 288 289 289 290 290 290 289 289 290 290 289 289 288 288 290 291 291 289 289 289 290 291 292 293 292 292 292 290 289 291 289 288 288 288 289 289 288 288 288 286 285 285 284
287 287 287 288 288 287 286 285 285 285 285 285 284 284 284 285 285 287 288 288 288 289 289 289 290 289 290 289 289 289 288 289 289 287 287 288 288 288 288 288 289 290 290 292 292 290 290 290 289 288 288 288 288 288 288 288 288 287 286 285 283 283
287 288 287 288 287 285 285 284 284 284 284 284 283 284 284 285 285 286 287 288 288 288 288 289 289 288 289 289 289 288 288 287 287 287 287 286 286 287 288 288 288 288 289 289 290 289 291 287 287 288 287 287 287 287 287 287 287 286 285 285 286 282
288 288 287 286 286 285 284 283 283 284 283 282 281 281 281 283 284 285 286 287 287 288 288 288 288 288 288 287 287 287 287 287 287 286 286 287 285 285 286 287 288 288 288 288 288 288 289 288 287 286 286 287 287 287 286 287 287 285 285 285 284 283
287 286 285 285 284 284 283 282 282 282 282 280 278 279 280 281 283 285 286 287 287 287 288 288 287 287 288 288 288 287 287 287 287 287 287 285 285 285 285 285 286 286 287 288 288 287 287 287 286 286 286 286 286 286 286 285 284 285 285 284 282 281
284 284 284 282 282 281 281 281 281 281 280 278 277 277 278 280 282 284 283 282 284 287 288 288 288 288 288 287 287 287 286 286 286 287 286 285 284 284 284 285 285 285 286 287 286 286 286 286 286 286 286 286 286 286 286 285 283 282 282 282 281 280
282 282 282 281 281 280 280 279 280 280 278 276 275 276 277 279 281 283 284 286 285 286 287 288 288 288 287 287 287 287 287 287 286 286 285 285 285 285 284 283 284 284 284 285 285 285 286 286 286 286 286 286 286 286 285 283 282 282 281 280 279 280
Wind_Speed
6 7 7 6 8 9 9 8 6 7 9 10 12 14 13 12 10 11 12 13 11 11 14 15 15 15 15 14 14 13 13 14 14 13 13 12 11 11 10 10 11 12 14 16 16 15 16 16 16 15 14 15 13 13 12 12 13 12 11 12 11 12
7 7 6 7 7 7 7 7 6 8 9 10 11 11 11 11 12 12 13 13 13 11 12 13 14 14 14 14 14 14 15 15 14 14 14 14 11 11 13 11 14 16 16 15 16 15 15 16 16 16 15 14 13 12 11 11 12 11 12 11 10 9
8 5 5 6 6 6 6 7 8 8 7 10 11 12 12 13 13 12 12 11 12 14 14 15 14 15 13 14 16 18 16 14 13 14 13 12 13 15 14 14 16 16 16 16 16 16 15 16 15 15 13 12 11 10 10 10 11 12 11 10 11 11
8 7 6 5 6 8 8 7 7 9 10 9 9 10 11 13 13 12 12 11 11 13 14 15 13 13 14 16 17 18 18 17 18 14 15 18 15 17 16 16 15 14 16 16 16 16 16 16 16 12 10 12 12 12 11 11 12 12 12 10 12 12
8 8 9 9 9 9 8 7 7 8 8 8 9 10 12 10 10 9 9 10 11 13 13 12 12 12 14 15 15 18 18 17 17 16 16 17 15 15 14 13 16 15 15 16 16 16 16 15 13 11 13 12 12 12 11 12 12 12 12 12 13 13
6 7 7 8 8 7 8 6 6 7 8 8 7 10 11 8 8 8 9 10 11 12 12 12 12 13 14 15 17 18 18 16 16 15 14 16 13 12 8 15 16 14 13 15 14 14 13 13 12 12 12 13 13 12 13 12 12 12 13 13 12 11
7 7 8 9 10 8 7 7 7 7 7 6 7 8 8 8 7 8 10 10 12 11 12 13 12 13 14 17 16 18 17 17 15 13 11 12 11 10 11 11 12 12 13 13 14 14 13 13 13 12 12 12 12 12 12 12 12 12 12 13 12 12
8 8 8 9 10 7 7 7 7 7 7 7 6 7 7 8 6 8 8 9 10 11 12 12 12 13 15 16 18 18 17 15 15 12 11 12 18 13 11 12 12 13 13 14 14 14 13 12 12 12 12 11 11 11 11 11 11 11 12 12 12 12
10 9 9 8 9 7 6 7 7 6 7 7 7 7 7 7 6 8 8 9 9 10 11 12 12 11 12 12 13 14 15 15 16 14 15 12 14 12 12 13 14 12 13 13 13 13 13 13 11 11 12 12 11 11 11 11 12 11 11 11 11 11
10 10 10 10 8 8 8 5 6 8 7 8 5 6 6 5 6 7 7 7 9 10 11 10 9 9 10 11 11 11 14 14 13 15 14 12 12 13 14 13 13 12 11 12 12 13 12 11 11 11 12 11 11 11 11 11 11 10 10 10 10 11
13 12 11 12 11 10 9 8 7 6 7 8 7 5 7 5 5 7 7 7 10 11 8 7 9 10 10 10 9 11 11 11 11 11 10 9 10 10 12 11 11 10 11 11 11 11 11 11 12 11 11 11 12 11 11 11 11 10 10 9 9 9
13 13 11 12 10 11 10 10 9 8 7 8 6 6 6 3 6 7 7 9 11 8 6 8 10 8 7 8 10 10 8 8 8 8 8 10 10 10 9 9 9 9 10 11 11 11 11 11 10 12 16 13 10 10 9 9 10 10 10 10 9 8
11 11 12 12 12 11 10 10 9 9 9 8 7 6 4 4 6 7 8 10 8 6 6 6 9 9 10 12 9 9 9 9 7 7 8 8 8 9 8 8 9 10 10 10 10 11 10 10 9 14 14 16 17 13 10 10 9 9 9 9 8 9
12 10 10 12 12 10 11 12 12 11 11 9 6 4 3 5 7 8 9 9 6 6 7 7 7 10 12 10 11 9 7 6 7 9 9 8 9 8 5 7 10 9 8 8 9 10 10 10 11 13 13 15 16 15 10 8 8 8 8 8 8 7
14 12 12 14 14 12 12 11 12 13 11 8 5 1 4 6 7 8 9 8 8 8 7 6 7 8 10 10 8 7 7 8 8 10 9 10 7 4 8 9 7 8 7 8 9 9 8 7 9 13 14 15 15 16 13 8 8 8 7 7 8 8
15 15 15 14 11 11 11 10 10 11 7 6 4 5 5 5 6 7 8 8 8 9 8 8 8 9 9 8 8 7 8 9 11 10 8 6 6 8 8 7 9 7 8 8 8 8 7 8 9 13 14 15 15 15 13 8 8 8 8 8 8 8
17 16 16 11 9 10 8 7 5 7 9 7 8 6 6 6 6 6 7 8 9 8 7 8 8 10 10 8 8 8 9 10 9 9 9 8 9 9 10 9 9 9 9 9 8 8 9 9 12 14 15 15 16 15 13 7 7 7 7 6 6 8
13 13 13 11 10 10 7 6 5 8 11 8 7 6 4 5 5 6 6 8 8 8 8 8 8 8 9 9 8 9 11 11 11 11 9 8 8 8 7 8 8 10 10 9 9 9 10 9 13 14 16 16 16 16 10 7 7 7 7 7 7 7
10 11 12 11 9 9 9 9 8 8 10 10 8 5 5 5 7 8 7 8 9 9 9 9 8 9 10 9 10 11 12 12 12 10 8 9 9 10 10 10 9 8 8 9 9 10 10 9 11 14 14 15 14 11 7 7 6 7 7 8 7 8
7 9 8 10 10 8 8 8 8 9 9 10 7 6 8 6 8 7 7 10 9 9 8 7 8 8 10 10 13 14 12 10 8 10 8 11 11 11 12 9 8 7 9 10 11 10 10 9 9 12 12 13 15 12 9 7 6 6 8 8 6 5
8 9 9 8 9 8 7 8 8 9 10 8 6 7 9 7 7 7 10 11 8 7 7 7 8 10 10 11 13 12 11 11 11 6 5 8 9 9 6 6 8 6 6 6 9 9 10 8 9 12 12 14 16 12 8 7 6 8 6 6 6 5
7 7 7 8 10 8 8 8 7 10 10 10 7 8 9 7 8 11 14 13 12 9 8 6 10 11 11 12 11 9 9 5 4 7 8 6 5 4 3 4 5 6 5 4 5 6 8 7 5 10 14 14 15 16 9 6 7 8 8 6 7 6
5 7 9 8 9 8 7 7 8 9 9 9 8 9 7 7 9 9 8 8 10 10 10 7 8 10 10 9 8 6 5 5 6 5 5 6 4 4 4 5 5 5 5 4 4 4 5 4 5 6 12 14 15 14 12 7 8 6 7 7 6 6
8 9 9 7 6 6 6 7 9 9 9 9 10 10 8 8 8 7 8 9 8 7 9 7 7 8 9 7 6 7 8 6 5 6 7 6 6 7 7 6 5 6 6 4 5 5 6 5 8 6 12 13 15 15 14 8 7 7 8 6 6 6
9 10 11 9 8 6 6 5 6 9 10 10 11 10 9 10 10 10 9 8 8 7 7 7 8 9 7 8 8 8 9 6 7 7 7 8 7 8 9 9 7 7 8 6 6 4 4 4 5 10 10 14 15 15 14 12 8 10 8 9 9 8
8 9 11 9 9 7 3 6 7 7 8 12 10 9 9 9 10 9 10 8 7 6 7 7 7 8 6 7 7 8 9 8 8 7 7 8 8 9 9 7 7 7 8 9 6 5 4 4 4 7 10 11 16 15 15 13 11 12 8 5 6 7
9 9 11 10 10 8 4 3 5 8 10 11 8 10 10 9 8 9 9 9 8 7 6 5 6 6 6 6 7 8 9 9 8 9 7 8 10 9 9 8 7 8 9 6 7 8 6 5 5 6 8 11 13 15 15 13 12 13 11 7 3 6
9 7 12 13 12 10 3 3 3 8 12 10 9 9 8 8 9 10 10 9 8 8 6 6 5 5 6 7 7 9 8 9 9 9 9 9 10 9 8 8 7 8 6 8 7 8 7 6 5 5 5 7 9 11 14 13 12 12 10 6 5 7
9 10 9 11 12 9 8 6 5 7 8 7 9 8 8 9 9 10 9 9 8 7 5 6 4 3 5 6 5 5 7 8 8 7 8 8 9 7 8 9 9 9 10 9 8 7 6 7 6 6 6 5 5 6 7 8 7 9 9 7 6 9
10 11 10 13 10 7 8 8 9 9 7 6 7 8 8 9 9 8 7 7 5 6 4 5 7 6 4 6 7 7 6 8 8 8 11 11 10 10 11 10 11 12 11 12 10 8 8 8 7 9 10 10 10 8 8 8 8 8 7 8 6 6
11 11 11 12 9 6 7 9 9 9 10 8 6 8 8 8 8 8 8 6 5 5 5 4 4 4 5 4 6 7 8 8 9 9 9 10 9 10 12 11 9 10 5 8 10 11 10 9 9 13 11 10 11 12 11 10 10 8 8 11 14 9
9 11 12 11 8 7 8 9 9 8 8 8 9 9 10 10 8 7 7 5 4 4 4 4 4 4 5 5 7 7 7 8 10 9 8 8 10 13 13 10 9 6 5 7 8 11 11 11 10 12 16 16 17 17 17 15 15 14 13 15 19 15
8 9 10 11 8 8 8 8 5 7 8 8 9 10 11 10 8 7 6 5 4 4 4 3 4 4 5 6 6 5 7 6 6 9 11 11 8 11 14 13 12 10 13 10 8 8 11 6 9 16 19 19 18 18 17 16 16 19 22 20 14 9
10 9 11 9 9 10 9 8 6 6 7 7 8 10 10 11 9 9 7 5 3 3 5 3 4 4 6 6 5 4 5 6 8 6 4 4 8 11 14 15 14 13 13 15 12 8 7 7 11 17 19 19 19 18 17 17 19 19 19 19 18 11
8 9 9 9 10 11 9 8 7 5 7 7 6 7 10 11 10 11 9 8 7 5 5 4 4 5 5 4 4 5 5 6 8 9 7 4 2 5 11 14 16 15 15 16 15 14 13 12 12 16 16 18 19 18 17 17 19 19 19 18 11 9
7 8 9 11 11 11 11 12 10 7 6 6 5 6 9 10 11 12 10 8 7 7 5 5 4 4 4 5 5 5 5 6 6 8 7 5 5 3 3 5 8 10 12 14 14 13 11 11 15 18 18 17 18 19 20 18 14 18 20 15 11 9
10 10 10 11 11 11 11 12 10 6 6 6 5 6 8 10 11 11 11 13 11 8 8 6 5 5 4 4 5 5 6 6 6 7 7 8 7 8 7 6 3 3 8 9 8 11 10 12 14 17 19 19 18 19 21 19 13 12 9 7 1 6
10 10 10 10 11 11 12 13 9 6 5 5 5 5 7 9 11 11 11 9 10 8 7 7 6 5 5 5 6 6 6 6 5 6 6 6 6 6 6 5 4 2 3 6 7 10 12 13 15 16 17 18 20 21 21 14 11 11 10 9 6 7
Wind_Direction
275 273 271 266 260 262 265 268 258 254 249 248 251 251 245 237 226 221 221 220 220 219 220 218 220 222 224 224 225 224 223 222 222 222 223 222 215 209 207 202 207 216 221 220 222 222 221 221 220 219 218 216 217 219 221 219 218 217 217 219 215 221
282 282 291 285 273 268 263 262 255 247 244 240 237 246 252 243 227 220 222 220 220 220 218 220 221 221 222 222 220 222 224 225 222 222 223 221 216 221 218 210 223 221 218 217 218 219 219 220 220 218 215 211 215 219 218 218 213 214 218 219 212 217
292 291 285 278 275 263 261 256 253 253 243 238 235 227 233 238 235 229 226 223 221 221 220 220 219 220 220 227 231 235 233 230 226 225 226 225 226 228 224 219 220 218 218 216 215 216 215 216 217 214 208 206 211 214 219 217 214 217 219 216 217 214
298 295 279 268 270 269 258 249 248 248 237 233 235 233 229 227 227 221 224 220 222 222 224 224 222 220 221 227 232 234 235 235 235 229 232 231 226 230 226 220 217 217 217 217 217 216 216 217 216 205 199 212 213 214 212 217 216 218 220 217 221 216
295 293 291 287 277 275 275 269 254 255 254 241 232 230 237 227 229 226 223 225 222 225 225 224 222 218 219 222 230 232 231 233 233 231 230 232 230 225 223 217 219 216 216 217 217 217 216 212 208 206 205 207 210 212 214 214 214 216 217 218 220 218
287 290 289 285 280 281 283 275 269 261 250 242 236 236 242 232 222 225 225 227 229 227 224 222 221 219 218 225 230 231 230 230 231 229 229 230 229 222 207 224 224 219 214 215 214 213 212 213 211 209 206 208 208 212 215 215 216 216 218 221 220 218
287 292 299 293 289 294 285 280 274 264 260 244 237 247 246 240 231 224 224 224 227 224 222 223 219 218 217 224 231 232 229 227 227 225 218 220 223 215 218 218 219 216 215 215 217 218 214 213 213 210 209 210 209 211 214 215 216 218 220 220 220 219
301 292 284 284 290 291 290 280 266 260 258 252 240 249 246 238 237 235 232 229 229 230 225 226 221 220 221 223 230 232 229 227 226 221 216 214 224 217 214 212 215 216 216 216 218 217 215 213 211 210 210 211 211 212 214 216 218 220 220 221 221 220
298 295 284 275 286 288 280 276 276 264 255 251 233 233 241 239 230 232 233 233 232 236 232 226 224 223 224 224 225 229 230 229 226 221 220 210 218 216 214 215 215 215 216 216 217 218 215 215 210 210 211 213 212 213 216 219 220 219 220 220 219 219
291 289 288 287 285 284 274 262 266 270 266 264 239 219 224 229 224 230 230 232 237 238 236 231 229 231 234 237 234 230 233 232 228 227 227 217 214 217 219 216 216 217 214 217 216 217 214 213 211 211 214 214 214 214 216 218 221 221 221 220 219 218
287 286 288 290 294 284 275 275 264 251 256 256 259 252 240 218 216 228 225 228 236 237 232 235 235 232 230 230 231 232 231 231 230 227 228 222 221 222 225 223 220 218 217 218 218 216 213 214 215 213 212 214 214 215 217 218 218 217 218 219 219 217
278 280 285 285 285 288 289 281 265 253 257 265 246 236 239 203 228 227 224 226 233 235 223 234 235 231 228 226 227 230 228 229 228 227 228 229 226 227 225 227 223 220 219 218 219 218 216 217 218 214 211 209 213 214 216 216 217 214 215 216 215 217
275 278 275 270 271 271 276 281 280 277 266 257 260 249 223 198 230 231 233 237 235 230 228 228 236 232 231 229 228 227 225 221 216 219 225 228 226 225 223 221 223 223 222 220 218 218 221 221 219 213 209 210 211 213 213 212 213 211 211 209 205 210
277 270 273 281 277 261 271 278 275 272 263 263 257 242 198 210 228 235 242 250 252 231 227 229 232 233 234 229 227 223 223 221 217 221 222 223 223 223 219 223 225 227 224 225 224 223 221 223 215 210 212 212 214 211 210 209 212 207 207 203 204 205
279 281 284 286 286 277 264 269 279 272 269 289 295 199 206 218 228 236 245 243 240 240 226 225 229 233 232 226 228 220 215 219 225 226 220 221 215 203 214 224 223 227 225 223 225 228 226 230 216 211 212 214 212 209 208 209 204 200 205 201 202 196
279 282 283 283 279 271 276 278 277 289 321 315 291 247 234 222 229 230 247 253 244 236 226 216 222 235 234 228 221 219 219 219 226 225 221 213 199 210 219 221 222 222 220 218 222 226 224 224 218 213 215 215 212 209 204 208 198 197 196 199 197 191
279 283 285 289 294 298 305 301 297 289 273 258 261 239 240 226 233 234 236 244 246 237 233 218 215 229 231 222 219 215 220 222 228 223 216 205 204 205 210 210 214 216 214 214 213 217 220 220 212 212 212 211 207 205 200 198 190 187 191 190 190 186
286 292 298 303 305 301 304 293 274 266 269 264 252 274 265 264 253 253 242 246 245 238 234 227 227 225 220 217 211 219 221 218 217 217 208 202 209 209 204 212 206 207 208 208 206 212 223 219 210 212 212 207 203 195 191 178 176 179 174 173 181 182
290 290 296 303 309 314 309 297 286 269 275 279 271 273 259 247 252 250 243 246 246 237 231 222 225 229 222 213 214 220 223 218 215 213 195 201 204 202 203 207 204 206 207 209 210 212 221 219 212 209 208 204 192 177 172 167 168 174 175 176 177 181
304 308 313 313 310 300 289 289 289 288 282 280 276 265 251 230 247 250 254 254 243 237 228 219 216 225 224 217 221 221 223 220 218 214 199 203 201 206 206 193 196 200 202 202 208 207 208 219 208 201 201 190 178 171 169 171 169 175 170 156 169 174
320 311 306 296 291 303 309 303 299 291 286 281 266 235 246 236 232 238 242 244 237 237 233 214 209 217 217 219 229 224 219 213 212 206 194 216 212 216 198 192 196 201 205 208 205 203 207 208 204 195 194 185 175 172 170 168 168 168 179 167 161 164
312 300 298 302 300 316 316 308 297 288 283 283 282 268 257 252 236 232 234 246 248 245 242 225 216 218 216 225 230 233 234 228 212 206 204 214 214 211 206 209 211 207 214 200 210 211 213 210 204 199 192 187 183 176 169 172 169 184 177 176 169 163
282 286 288 290 298 309 310 306 299 290 290 288 282 278 285 268 247 245 248 240 232 230 231 229 221 226 226 224 225 221 229 222 219 205 201 202 205 202 207 210 215 213 216 208 210 209 215 210 202 204 200 190 188 188 177 182 189 177 171 176 179 184
305 297 290 279 300 301 300 304 297 292 299 300 292 291 290 288 280 269 257 248 239 225 227 228 229 226 230 224 214 215 218 213 206 205 201 204 198 200 210 210 213 215 214 210 204 210 209 203 204 189 199 196 190 189 193 187 195 175 166 174 191 186
310 304 300 307 312 305 304 304 292 292 296 289 286 299 304 299 293 283 274 265 253 244 240 234 224 225 219 218 210 212 221 205 201 203 196 202 201 201 206 208 210 210 213 209 212 211 209 205 207 202 195 194 190 192 195 196 183 182 178 176 184 193
288 293 296 305 305 301 305 297 294 292 288 281 291 302 299 298 294 294 287 279 267 256 248 242 236 230 223 220 211 211 215 206 203 202 203 202 203 208 204 200 198 208 210 206 202 201 201 200 202 203 200 193 192 191 193 195 187 178 184 186 187 182
294 297 300 300 301 299 298 273 280 288 285 285 303 302 304 302 303 298 290 283 275 264 255 241 238 231 222 220 209 216 216 213 197 207 206 201 207 206 206 205 192 204 210 201 201 202 197 192 198 200 200 195 193 192 193 192 180 185 179 177 180 176
294 290 288 295 295 299 298 278 267 280 282 299 305 299 298 298 297 293 285 285 278 269 259 250 239 222 223 215 214 219 220 214 207 209 207 207 214 209 205 206 196 199 195 205 206 200 192 187 183 192 188 197 198 198 197 188 180 180 181 167 151 149
296 291 292 292 293 298 302 299 281 267 283 294 296 297 293 290 284 283 286 284 283 274 256 246 234 208 213 215 217 215 221 218 218 212 211 208 207 201 205 206 206 199 202 204 202 196 183 189 184 184 184 181 179 188 180 167 168 154 137 126 124 124
283 291 295 292 293 297 297 299 297 298 296 292 296 298 292 281 274 275 280 281 279 277 249 236 232 226 219 211 214 218 215 220 216 215 215 208 203 196 205 204 206 204 199 202 196 187 186 191 193 190 188 187 182 173 169 172 165 167 169 155 145 136
290 290 292 287 290 298 295 293 296 303 310 310 308 299 290 279 274 270 269 268 266 262 256 242 238 227 231 217 214 223 223 217 218 224 235 228 221 218 216 217 226 220 210 199 193 186 195 196 197 205 189 179 173 173 171 175 177 170 170 161 143 119
274 286 291 291 295 296 292 295 297 302 305 312 313 308 298 294 289 276 267 258 254 258 252 249 242 236 236 234 231 225 234 235 236 234 232 240 221 230 239 241 237 225 205 213 215 204 198 196 196 159 166 176 179 179 176 172 167 166 155 151 152 145
284 283 285 289 296 292 293 291 293 299 303 308 307 303 294 293 290 280 271 261 246 235 244 248 248 238 244 242 237 232 230 232 230 244 251 254 237 223 230 239 247 237 219 217 217 213 228 231 167 166 175 176 180 180 178 173 169 160 157 149 141 155
305 302 298 301 299 293 290 285 282 289 297 301 300 300 294 287 284 285 283 279 265 237 227 236 243 248 246 244 232 227 229 229 237 230 230 294 268 238 228 230 229 225 218 220 220 201 213 201 181 178 178 177 173 175 171 164 161 160 155 160 160 148
296 297 299 296 296 295 292 284 279 283 292 293 291 292 291 286 280 277 279 278 272 259 226 223 220 227 228 232 227 230 221 228 224 229 229 219 333 276 246 236 230 223 220 216 219 210 202 187 179 180 180 176 169 163 162 160 157 156 157 153 166 173
287 289 293 294 292 292 292 290 289 292 290 294 285 283 285 285 281 278 274 274 269 265 252 225 208 210 222 224 234 230 225 225 220 223 224 221 214 242 277 272 247 234 222 222 214 206 208 191 177 173 174 174 167 160 154 150 152 159 163 167 169 163
299 299 295 294 293 293 289 286 292 295 298 292 289 288 290 288 285 283 273 259 255 258 258 243 220 212 205 213 217 222 223 222 221 221 221 215 212 213 214 217 236 255 223 213 209 204 192 181 178 174 170 167 163 157 150 138 144 157 176 190 232 169
295 292 294 293 292 290 287 285 293 296 298 294 284 284 282 286 286 283 279 276 252 241 246 245 233 212 203 205 211 216 221 221 216 214 218 212 212 214 207 212 216 232 255 209 200 191 183 179 175 172 170 164 160 156 146 155 166 167 177 181 173 175